| time (UTC) | temp F | wind direction | speed knots | gust knots | rain 1hr in | rain 24hr in | rain mn in | humidity % | barometer mb |
| 20260504213037 | 60 | 315 | 20.9 | 30.4 | 0.00 | 0.00 | 0.00 | 39 | 1003.1 |
| 20260504210038 | 60 | 315 | 20.0 | 30.4 | 0.00 | 0.00 | 0.00 | 39 | 1002.8 |
| 20260504203018 | 60 | 315 | 21.7 | 33.9 | 0.00 | 0.00 | 0.00 | 37 | 1003.0 |
| 20260504200038 | 61 | 315 | 20.9 | 32.2 | 0.00 | 0.00 | 0.00 | 37 | 1003.0 |
| 20260504193017 | 62 | 315 | 21.7 | 31.3 | 0.00 | 0.00 | 0.00 | 36 | 1002.5 |
| 20260504190057 | 62 | 315 | 22.6 | 32.2 | 0.00 | 0.00 | 0.00 | 30 | 1002.0 |
| 20260504183037 | 62 | 315 | 20.9 | 31.3 | 0.00 | 0.00 | 0.00 | 34 | 1001.7 |
| 20260504180017 | 62 | 315 | 20.9 | 29.5 | 0.00 | 0.00 | 0.00 | 38 | 1001.5 |
| 20260504173016 | 62 | 315 | 19.1 | 28.7 | 0.00 | 0.00 | 0.00 | 40 | 1001.2 |
| 20260504050017 | 54 | 248 | 4.3 | 7.0 | 0.00 | 0.00 | 0.00 | 53 | 1002.4 |
| 20260504043016 | 54 | 225 | 3.5 | 7.0 | 0.00 | 0.00 | 0.00 | 52 | 1002.8 |
| 20260504040017 | 55 | 225 | 2.6 | 5.2 | 0.00 | 0.00 | 0.00 | 52 | 1003.3 |
| 20260504033016 | 56 | 203 | 2.6 | 5.2 | 0.00 | 0.00 | 0.00 | 49 | 1003.9 |
| 20260504030016 | 58 | 203 | 2.6 | 4.3 | 0.00 | 0.00 | 0.00 | 46 | 1004.4 |
| 20260504023016 | 61 | 225 | 1.7 | 4.3 | 0.00 | 0.00 | 0.00 | 40 | 1004.5 |
| 20260504020016 | 64 | 0.0 | 0.9 | 0.00 | 0.00 | 0.00 | 35 | 1004.7 | |
| 20260504013017 | 66 | 293 | 0.9 | 2.6 | 0.00 | 0.00 | 0.00 | 32 | 1004.8 |
| 20260504010016 | 68 | 293 | 3.5 | 8.7 | 0.00 | 0.00 | 0.00 | 30 | 1004.8 |
| 20260504003038 | 70 | 293 | 7.8 | 13.0 | 0.00 | 0.00 | 0.00 | 28 | 1005.1 |
| 20260504000118 | 71 | 315 | 9.6 | 16.5 | 0.00 | 0.00 | 0.00 | 27 | 1005.7 |
| 20260503233018 | 71 | 315 | 10.4 | 19.1 | 0.00 | 0.00 | 0.00 | 27 | 1005.8 |
| 20260503230018 | 71 | 315 | 12.2 | 19.1 | 0.00 | 0.00 | 0.00 | 27 | 1006.0 |
| 20260503223037 | 71 | 293 | 11.3 | 19.1 | 0.00 | 0.00 | 0.00 | 29 | 1006.2 |
| 20260503220018 | 72 | 315 | 10.4 | 20.9 | 0.00 | 0.00 | 0.00 | 32 | 1006.3 |